Effective Sunday, March 17, 2024, the National Weather Service National Data Buoy Center will discontinue its Dial-A-Buoy Interactive Voice Response system. For more information, see Service Change Notice 24-06 (PDF).

Station DISW3 - Devils Island, WI Image indicating link to RSS feed of recent meteorological observations for station DISW3


Conditions at DISW3 as of
(12:00 pm CST)
1800 GMT on 03/01/2024:
     

Click on the graph icon in the table below to see a time series plot of the last five days of that observation.

5-day plot - Wind Direction Wind Direction (WDIR):SSE ( 150 deg true )
5-day plot - Wind Speed Wind Speed (WSPD): 8 kts
5-day plot - Wind Gust Wind Gust (GST): 11 kts
5-day plot - Atmospheric Pressure Atmospheric Pressure (PRES):29.80 in
5-day plot - Pressure Tendency Pressure Tendency (PTDY):-0.05 in ( Falling )
5-day plot - Air Temperature Air Temperature (ATMP): 44.8 °F
5-day plot - Dew Point Dew Point (DEWP): 21.6 °F
5-day plot - Wind Chill Wind Chill (CHILL): 39.9 °F
5-day plot - Wind Speed at 10 Meters Wind Speed at 10 meters (WSPD10M): 8 kts
5-day plot - Wind Speed at 20 Meters Wind Speed at 20 meters (WSPD20M): 8 kts
5-day plot -  Wind Speed, Wind Gust and Atmospheric Pressure Combined plot of Wind Speed, Gust, and Air Pressure
Continuous Winds
TIME
(CST)
5-day plot - Wind Direction WDIR 5-day plot - Wind Speed WSPD
12:00 pmSSE ( 152 deg ) 7 kts
11:50 amSSE ( 156 deg ) 8 kts
11:40 amSSE ( 167 deg ) 8 kts
11:30 amSSE ( 162 deg ) 7 kts
11:20 amSSE ( 164 deg ) 9 kts
11:10 amS ( 175 deg ) 10 kts
 
Peak gust during the measurement hour
TIME
(CST)
5-day plot - Gust Direction GDR 5-day plot - Gust Speed GST
11:03 amS ( 170 deg ) 17 kts
Previous observations
TIME
(CST)
5-day plot - Wind Direction
WDIR
 
5-day plot - Wind Speed
WSPD
kts
5-day plot - Wind Gust
GST
kts
5-day plot - Wave Height
WVHT
ft
5-day plot - Dominant Wave Period
DPD
sec
5-day plot - Average Wave Period
APD
sec
5-day plot - Mean Wave Direction
MWD
 
5-day plot - Atmospheric Pressure
PRES
in
5-day plot - Pressure Tendency
PTDY
in
5-day plot - Air Temperature
ATMP
°F
5-day plot - Water Temperature
WTMP
°F
5-day plot - Dew Point
DEWP
°F
5-day plot - Salinity
SAL
psu
5-day plot - Visibility
VIS
nmi
5-day plot - Tide (above MLLW)
TIDE
ft
2024-03-01 11:00 am S 12 16----29.82-0.05 42.1- 19.8---
2024-03-01 10:00 am S 9 14----29.83-0.06 40.3- 18.9---
2024-03-01 09:00 am S 6 9----29.85-0.05 37.9- 19.4---
2024-03-01 08:00 am SE 4 5----29.87-0.04 34.3- 22.5---
2024-03-01 07:00 am SE 3 4----29.89-0.03 34.3- 22.3---
2024-03-01 06:00 am SE 5 6----29.90-0.04 34.0- 26.1---
2024-03-01 05:00 am E 6 7----29.91-0.05 33.3- 29.1---
2024-03-01 04:00 am E 9 9----29.92-0.06 32.9- 28.4---
2024-03-01 03:00 am E 11 12----29.93-0.07 32.4- 26.4---
2024-03-01 02:00 am E 12 13----29.96-0.07 31.5- 25.5---
2024-03-01 01:00 am E 11 13----29.98-0.07 30.4- 23.5---
2024-03-01 12:00 am E 14 15----30.00-0.09 30.2- 21.6---
2024-02-29 11:00 pm E 14 16----30.03-0.09 29.8- 20.3---
2024-02-29 10:00 pm E 17 18----30.06-0.09 28.8- 18.9---
2024-02-29 09:00 pm E 18 19----30.09-0.07 27.9- 18.1---
2024-02-29 08:00 pm E 18 20----30.12-0.06 26.8- 15.6---
2024-02-29 07:00 pm E 17 18----30.15-0.05 25.9- 12.7---
2024-02-29 06:00 pm E 16 17----30.16-0.05 24.6- 13.6---
2024-02-29 05:00 pm E 15 17----30.18-0.04 22.6- 12.0---
2024-02-29 04:00 pm E 13 15----30.20-0.06 20.8- 10.4---
2024-02-29 03:00 pmESE 13 15----30.21-0.09 19.9- 8.4---
2024-02-29 02:00 pm E 13 15----30.23-0.10 18.0- 5.4---
2024-02-29 01:00 pm E 9 11----30.26-0.09 17.1- 4.1---
2024-02-29 12:00 pmESE 7 9----30.31-0.05 15.8- 2.7---